INNOSAT 16 (RS92S7)

Last updated on Mon Nov 03 2025 00:03:22 GMT+0000 (Coordinated Universal Time)

1 64878U 25155C 25306.26575750 .00004912 00000+0 21649-3 0 9994 2 64878 97.4266 270.0999 0009215 263.3275 96.6912 15.22238677 46118
UTC large
Height (km)
Speed (km/s)
/
Latitude / Longitude
Inclination (degrees)
Orbital Period (minutes)
Azimuth
Elevation
Range (km)
Doppler Factor

Next 0 passes for location: London (51.5072 / 0.1276)

Sorry there are no passes over London.